Location: Casilda
(33.0440°S, 61.1680°W)
Time: 18:32:40
(UTC-03:00)

ISS - Pass Details

Date: 26 November 2021
Orbit: 417 x 423 km, 51.6° (Epoch: 28 November)

Event Time Altitude Azimuth Distance (km) Brightness Sun altitude
Exits shadow 03:39:59 33° 76° (ENE) 738 -2.3 -22.7°
Drops below altitude 10° 03:42:31 10° 117° (ESE) 1,515 0.0 -22.4°
Sets 03:44:43 0° 125° (SE) 2,386 1.5 -22.0°
